Temperature
8 8 8 8 8 9 8 9 10 10 10 10 9 9 8 7 7 7 6 6 7 7 7 7 7 8 8 8 8 8 9 9 9 9 9 9 9 9 9 8 8 8 8 8
7 7 8 8 8 8 8 9 9 9 9 9 8 7 7 7 6 6 6 5 6 6 6 7 7 7 7 7 7 8 8 8 8 8 8 8 8 8 8 8 8 8 8 7
8 7 8 8 8 8 8 8 9 9 9 8 8 7 7 6 6 5 5 5 5 6 6 6 6 6 6 7 7 7 7 7 7 7 7 7 7 7 7 7 7 7 7 7
8 7 7 9 7 8 8 8 8 8 8 7 7 5 5 5 5 5 4 5 5 5 5 5 6 6 6 6 6 6 6 6 6 7 7 6 6 6 6 6 6 6 6 6
8 8 8 8 7 7 7 8 7 7 7 6 5 5 5 4 4 4 4 4 4 5 5 5 5 5 5 5 5 5 5 5 6 6 6 6 6 6 6 6 6 6 6 6
7 8 8 9 7 6 7 8 7 6 6 6 5 7 7 4 4 4 4 4 4 4 4 4 4 4 4 4 4 4 5 5 5 5 5 5 5 5 5 5 5 5 5 5
7 7 9 8 6 6 8 9 6 5 5 5 6 6 4 3 3 3 3 3 3 3 3 3 4 4 4 4 4 4 4 4 4 4 4 4 4 4 4 4 4 4 4 4
7 7 8 6 6 7 8 5 5 4 4 4 4 3 3 3 3 3 3 3 3 3 3 3 3 3 3 3 3 3 3 3 3 3 4 4 4 4 4 4 4 4 4 4
8 8 6 5 6 5 5 4 4 4 4 3 3 3 3 3 3 2 2 2 2 2 2 2 2 2 2 2 2 2 2 2 3 3 3 3 3 3 3 3 3 3 3 3
6 6 5 4 4 4 4 4 4 4 4 3 3 3 2 2 2 2 2 2 1 1 1 2 2 1 1 1 1 2 2 2 2 2 2 2 2 2 2 2 2 2 2 2
5 5 4 3 4 4 4 4 4 4 3 3 3 2 2 2 1 1 1 1 1 1 1 1 1 1 1 1 1 1 1 1 1 1 2 2 2 2 2 2 2 2 2 2
7 7 6 6 5 5 4 4 4 3 3 2 2 2 2 1 1 1 1 0 0 0 0 0 0 -0 -0 -0 -0 -0 0 0 0 1 1 1 1 1 1 1 1 1 1 1
6 5 5 5 5 5 4 4 3 3 3 2 2 1 1 1 1 0 0 -0 -0 -0 -0 -1 -1 -1 -1 -1 -1 -1 -1 -1 -0 -0 -0 -0 -0 -0 -0 0 0 0 0 0
5 5 4 5 5 4 4 3 3 3 2 2 1 1 1 1 0 0 -0 -0 -1 -1 -1 -1 -1 -1 -1 -2 -1 -1 -1 -1 -1 -1 -1 -1 -1 -1 -1 -1 -1 -0 -0 -0
4 4 4 5 4 4 3 3 2 2 2 2 1 1 0 0 -0 -0 -1 -1 -1 -1 -1 -2 -2 -2 -2 -2 -2 -2 -2 -2 -2 -2 -2 -2 -2 -2 -2 -1 -1 -1 -1 -1
4 3 3 3 4 3 3 2 2 2 1 1 1 0 0 -0 -1 -1 -1 -1 -2 -2 -2 -2 -2 -3 -3 -3 -3 -3 -3 -2 -2 -2 -2 -2 -2 -2 -2 -2 -2 -2 -1 -1
2 2 2 2 3 3 3 2 2 2 1 1 0 -0 -0 -1 -1 -1 -1 -2 -2 -2 -2 -3 -3 -3 -3 -3 -3 -3 -3 -3 -3 -3 -3 -3 -3 -3 -2 -2 -2 -2 -2 -2
5 5 4 4 4 3 2 2 2 1 1 0 0 -0 -1 -1 -1 -2 -2 -2 -2 -2 -2 -3 -3 -3 -3 -4 -4 -4 -4 -4 -4 -4 -4 -4 -3 -3 -3 -3 -3 -3 -3 -2
3 4 3 3 3 3 2 2 1 1 0 0 -0 -1 -1 -1 -2 -2 -2 -3 -3 -3 -3 -3 -3 -3 -4 -4 -4 -4 -4 -4 -4 -4 -4 -4 -4 -4 -4 -4 -4 -3 -3 -3
3 3 3 3 2 2 2 1 1 1 0 -0 -1 -1 -1 -2 -2 -2 -3 -3 -3 -3 -3 -4 -4 -4 -4 -4 -4 -5 -5 -5 -5 -5 -5 -5 -5 -5 -4 -4 -4 -4 -4 -4
3 3 2 2 2 1 1 1 1 0 -0 -1 -1 -1 -2 -2 -2 -3 -3 -3 -3 -4 -4 -4 -4 -4 -4 -5 -5 -5 -5 -5 -5 -5 -5 -5 -5 -5 -5 -5 -5 -5 -5 -4
2 2 2 2 1 1 1 0 0 -0 -1 -1 -1 -2 -2 -2 -3 -3 -3 -3 -4 -4 -4 -4 -4 -5 -5 -5 -5 -5 -5 -5 -5 -6 -6 -6 -6 -6 -6 -5 -5 -5 -5 -5
2 2 2 1 1 1 0 -0 -0 -1 -1 -1 -2 -2 -3 -3 -3 -4 -4 -4 -4 -4 -4 -5 -5 -5 -5 -5 -5 -5 -6 -6 -6 -6 -6 -6 -6 -6 -6 -6 -6 -6 -6 -6
2 2 1 1 0 0 -0 -1 -1 -1 -2 -2 -2 -3 -3 -3 -4 -4 -4 -4 -5 -5 -5 -5 -5 -5 -5 -6 -6 -6 -6 -6 -6 -6 -6 -6 -6 -6 -6 -6 -6 -6 -6 -6
1 1 1 0 -0 -0 -1 -1 -1 -2 -2 -3 -3 -3 -4 -4 -4 -4 -5 -5 -5 -5 -5 -5 -5 -6 -6 -6 -6 -6 -6 -6 -6 -6 -6 -6 -6 -6 -6 -6 -6 -6 -6 -6
1 1 0 -0 -0 -1 -1 -2 -2 -2 -3 -3 -3 -4 -4 -4 -5 -5 -5 -5 -5 -6 -6 -6 -6 -6 -6 -6 -7 -7 -7 -7 -7 -7 -7 -7 -7 -7 -7 -7 -7 -7 -7 -7
0 -0 -0 -1 -1 -1 -2 -2 -3 -3 -3 -4 -4 -4 -4 -5 -5 -5 -6 -6 -6 -6 -6 -6 -7 -7 -7 -7 -7 -7 -7 -7 -7 -7 -7 -7 -7 -7 -7 -7 -7 -7 -7 -7
Wind_Speed
2 2 1 0 1 0 1 1 1 3 3 1 1 2 4 5 5 7 8 8 9 8 8 7 7 7 6 5 5 4 3 2 2 3 3 4 5 5 6 7 8 8 9 8
1 2 1 1 2 3 2 2 3 3 1 0 1 2 3 4 5 6 7 7 8 8 8 8 8 7 7 6 6 5 4 3 3 2 3 4 4 5 6 7 7 8 9 9
1 1 2 2 3 5 3 3 4 4 2 2 1 1 3 4 5 5 6 7 7 8 8 8 8 8 7 7 6 5 4 4 3 3 3 3 4 5 6 7 8 8 9 9
1 1 3 1 2 2 4 3 3 2 2 2 1 1 2 3 3 4 6 7 7 7 8 8 8 8 7 7 6 5 5 4 3 3 4 4 5 6 6 7 8 8 9 9
2 2 3 2 3 3 4 3 4 5 3 3 3 2 0 2 3 4 6 6 7 7 8 8 8 8 7 7 6 6 6 6 5 5 5 5 6 7 6 7 7 7 7 8
3 3 3 2 4 3 3 3 5 6 5 5 4 3 1 1 3 4 5 6 7 7 7 8 8 8 7 7 7 7 7 7 7 6 6 7 7 6 6 6 7 7 7 8
4 4 4 2 5 5 5 1 6 6 6 6 4 1 1 1 3 4 5 6 6 7 7 7 8 8 7 7 8 8 8 8 7 7 7 7 6 6 6 6 7 7 8 8
6 6 5 7 8 7 2 4 6 6 5 5 3 1 1 2 3 4 5 6 7 7 7 7 7 7 8 8 9 9 9 8 8 7 6 5 6 6 6 7 7 8 7 7
6 4 2 6 5 2 3 5 5 5 5 4 3 3 2 3 4 5 6 6 7 7 8 7 7 7 8 9 9 9 9 9 8 7 6 5 6 6 6 7 7 7 7 7
5 7 6 6 6 4 5 5 5 5 5 4 3 3 3 3 4 5 6 6 7 7 8 8 8 8 8 9 9 9 9 9 7 7 6 5 5 5 6 7 7 7 7 7
6 5 4 8 10 9 7 5 5 4 4 4 3 3 3 4 4 5 5 6 6 7 8 9 9 9 9 9 9 9 9 8 7 6 6 5 5 5 7 7 7 7 7 7
8 8 7 6 9 11 10 8 8 6 4 3 4 4 4 4 5 5 6 6 7 7 8 9 9 9 9 9 8 9 8 7 6 5 5 5 5 5 8 9 10 12 10 8
4 4 4 3 6 10 9 8 7 6 5 4 3 3 4 5 5 5 6 7 8 8 9 9 9 9 9 9 8 8 8 8 6 6 5 5 5 5 5 6 9 12 13 13
6 6 5 5 6 8 8 7 6 5 4 3 3 3 4 5 5 6 7 7 8 9 9 9 9 9 9 9 8 8 9 8 7 6 6 6 6 6 5 5 5 5 7 12
9 7 5 6 7 7 7 6 6 5 4 3 3 4 4 5 6 7 7 7 8 8 9 8 9 10 9 8 8 9 8 7 6 6 6 6 5 5 5 6 5 5 3 5
9 7 7 8 9 9 8 7 7 6 5 4 4 4 5 6 7 7 7 6 7 9 9 9 9 9 9 8 8 8 7 8 8 6 6 5 5 5 5 5 5 5 4 4
12 10 9 9 10 10 9 8 7 6 5 5 5 5 5 6 7 7 7 7 7 9 9 9 9 9 9 8 8 7 7 7 8 7 6 6 5 6 5 5 5 5 4 4
12 11 12 11 11 10 8 7 6 6 5 5 4 4 5 6 7 8 8 8 8 9 9 8 9 9 9 8 7 7 6 6 6 6 6 6 6 5 5 5 5 5 4 4
10 9 9 9 8 8 7 6 6 5 4 4 4 5 6 6 7 7 7 8 8 9 8 7 10 9 8 8 8 6 6 6 6 6 6 7 7 5 5 5 5 4 4 3
9 9 8 8 7 6 5 4 4 4 3 3 4 5 6 6 6 7 7 8 7 7 8 9 9 8 8 8 8 6 6 7 6 6 5 5 5 5 5 5 4 4 4 3
10 10 9 8 7 5 5 5 4 4 3 3 4 5 6 6 6 6 7 7 7 6 8 10 8 7 7 8 8 6 6 6 6 6 5 5 5 5 5 4 4 4 3 3
10 9 9 8 7 5 4 3 3 3 3 3 4 5 5 6 6 6 7 7 7 9 8 7 7 8 10 10 6 6 6 6 6 5 5 5 5 5 5 4 4 3 3 3
8 8 8 7 6 5 4 3 3 3 3 3 4 5 5 6 5 5 6 5 6 10 9 7 10 13 14 9 6 6 6 6 6 6 5 5 5 5 5 4 4 3 3 3
8 7 7 6 5 5 4 3 2 2 3 3 4 4 5 5 5 5 5 9 10 12 8 10 13 14 12 7 6 6 6 6 6 6 6 5 5 4 4 4 4 3 3 3
7 7 6 6 5 4 3 2 2 2 2 3 4 4 4 4 5 6 6 7 10 10 8 10 12 12 8 7 7 7 6 6 6 6 5 5 5 5 4 4 4 4 3 3
6 6 5 4 3 3 2 2 1 1 2 3 3 3 3 4 5 6 6 7 8 9 8 7 8 8 7 7 7 7 6 6 6 6 5 5 5 5 4 4 5 4 4 4
6 5 4 3 2 2 2 2 2 2 2 3 4 3 4 4 5 5 6 6 6 6 6 6 6 6 6 6 6 6 6 5 5 5 5 5 5 4 4 5 4 4 4 4
Wind_Direction
51 14 349 249 263 186 154 215 163 142 145 164 55 35 28 34 39 38 31 26 23 19 16 14 13 10 3 355 349 338 318 289 268 251 224 202 190 186 187 185 182 179 177 176
78 35 4 283 258 229 225 216 185 186 223 85 87 57 40 34 31 30 24 17 11 7 3 2 360 355 351 347 341 330 315 300 282 253 229 211 199 189 188 188 184 181 181 179
168 337 287 264 248 217 202 200 202 216 205 146 143 57 23 14 17 15 10 5 360 356 354 350 346 340 337 334 329 323 314 303 287 262 240 224 207 201 199 194 189 188 188 186
162 201 230 70 50 201 198 218 223 225 188 186 172 75 4 355 3 5 359 354 351 348 345 341 338 335 331 328 323 319 312 304 290 269 251 232 217 213 209 202 199 196 193 191
187 226 262 234 190 179 194 229 215 208 195 168 148 164 213 24 4 352 348 345 341 339 335 335 337 336 331 327 323 319 315 309 297 275 256 240 229 223 215 209 208 206 198 193
187 222 234 154 147 165 190 226 187 190 186 177 183 223 203 54 338 340 342 339 335 334 334 335 337 335 330 327 323 319 315 306 296 279 261 249 238 227 219 213 211 206 204 203
211 238 258 158 145 161 202 184 155 180 182 181 200 267 66 320 324 329 330 332 332 331 333 333 333 331 326 325 322 318 311 302 293 280 267 256 245 228 217 210 208 208 207 207
198 219 237 151 161 196 198 118 156 171 178 183 195 208 253 296 315 322 327 331 331 329 328 329 330 327 323 321 320 316 310 302 294 286 275 257 242 230 217 209 208 209 209 209
211 223 62 171 191 171 150 163 172 176 179 182 197 228 263 292 308 319 323 326 327 324 321 323 327 324 317 318 318 314 309 303 297 289 276 260 241 229 218 212 212 210 209 212
241 244 226 213 210 199 189 184 176 176 176 188 215 239 270 289 302 310 315 320 322 319 318 320 324 321 315 315 315 312 308 306 301 292 283 270 252 233 226 220 217 214 213 214
238 241 223 224 214 202 191 184 174 173 184 197 217 247 270 283 292 302 309 314 314 312 311 314 318 316 315 315 313 310 306 302 300 294 287 275 260 246 237 235 227 222 220 214
218 203 195 201 193 188 186 189 187 184 192 206 224 247 263 275 287 296 302 307 308 309 309 311 313 312 314 315 312 307 304 303 299 294 288 280 273 269 246 243 241 237 235 228
212 167 175 149 165 178 186 186 185 191 198 211 226 245 262 277 286 293 297 301 304 306 306 307 308 309 313 314 309 302 298 298 294 289 285 279 274 270 273 258 243 240 236 234
178 148 160 178 178 177 176 173 174 183 199 213 227 249 264 276 284 288 294 300 304 303 302 302 303 305 312 313 308 301 297 291 287 284 280 277 273 270 266 263 262 256 241 235
194 195 181 158 156 160 163 164 175 193 203 219 231 247 262 273 282 289 296 302 302 299 299 301 301 305 313 311 306 302 298 294 292 290 284 278 275 273 268 260 256 257 258 243
177 172 163 164 169 171 173 183 198 209 216 229 240 253 265 275 284 290 294 298 298 298 301 303 301 305 311 308 304 299 294 292 293 293 290 282 276 272 269 263 258 253 249 245
163 176 183 186 186 187 193 200 208 214 221 231 244 260 272 280 285 288 293 295 291 289 292 295 296 303 305 300 297 295 294 295 294 290 286 282 277 274 271 266 260 258 256 246
191 187 183 183 185 190 197 202 208 214 223 235 247 257 264 271 280 289 297 300 298 294 291 291 296 301 300 299 296 291 291 293 293 291 290 286 283 279 276 273 269 266 268 260
183 177 176 177 178 181 188 196 205 213 222 228 241 253 263 270 279 287 293 294 294 297 304 309 307 302 299 299 299 289 287 288 288 286 286 289 288 281 276 273 272 270 267 260
172 169 165 163 163 169 177 183 189 204 218 228 245 261 270 277 283 287 289 285 281 288 300 306 307 301 299 298 298 289 286 284 284 285 285 285 285 285 284 280 277 273 266 257
166 164 161 161 162 165 172 176 186 205 219 228 243 260 273 283 287 287 288 290 296 304 304 303 302 300 299 299 295 288 286 286 286 285 284 284 284 284 285 286 283 279 275 270
165 164 164 163 162 166 168 173 185 202 221 240 253 265 275 283 288 286 275 275 295 309 309 301 300 302 305 302 291 286 284 283 282 282 281 281 281 280 279 279 279 279 276 273
161 162 162 165 166 160 154 167 185 206 228 246 259 268 274 281 285 285 291 296 305 309 308 299 305 308 309 302 290 285 284 283 282 280 279 278 277 276 274 274 273 273 271 269
154 155 153 148 144 151 168 182 197 223 245 261 264 270 278 285 285 273 282 301 309 310 305 305 311 312 310 299 291 287 284 283 282 280 277 275 274 275 274 273 271 270 267 266
148 145 145 151 162 175 179 178 198 230 259 272 281 284 281 276 281 296 301 303 309 311 307 309 313 315 310 298 294 290 286 283 282 281 275 272 271 271 271 271 269 269 267 266
150 155 159 165 166 164 166 179 210 244 270 286 295 297 298 296 294 297 299 304 306 309 310 309 312 313 308 303 298 294 291 289 288 283 277 273 270 268 268 268 268 264 264 263
138 142 145 148 154 162 171 193 224 252 269 283 294 299 305 306 305 307 307 308 310 310 310 310 311 309 307 304 301 298 294 290 287 284 281 276 272 268 266 263 263 262 261 260
Height
1471 1471 1470 1469 1468 1467 1467 1465 1463 1464 1467 1470 1472 1474 1475 1474 1474 1473 1472 1471 1470 1470 1469 1469 1468 1467 1467 1466 1465 1465 1464 1464 1464 1464 1463 1463 1464 1464 1465 1466 1467 1469 1471 1472
1473 1472 1471 1470 1468 1468 1468 1467 1467 1468 1470 1472 1475 1475 1475 1475 1475 1474 1474 1473 1472 1471 1470 1468 1467 1466 1465 1465 1463 1462 1462 1461 1460 1460 1460 1459 1459 1460 1461 1462 1463 1465 1466 1468
1469 1473 1470 1467 1466 1467 1468 1468 1467 1467 1469 1473 1474 1475 1476 1476 1475 1475 1474 1473 1472 1471 1469 1468 1467 1466 1464 1462 1461 1460 1459 1458 1457 1456 1456 1456 1456 1456 1457 1458 1459 1460 1461 1463
1470 1472 1472 1467 1470 1469 1469 1469 1470 1470 1472 1474 1475 1477 1476 1476 1476 1475 1474 1472 1471 1470 1468 1467 1465 1464 1462 1460 1459 1458 1456 1455 1454 1453 1452 1452 1452 1452 1453 1453 1454 1455 1456 1458
1470 1467 1463 1466 1469 1470 1469 1469 1470 1471 1473 1475 1476 1476 1476 1476 1475 1475 1473 1472 1470 1468 1467 1465 1463 1461 1460 1458 1456 1455 1453 1452 1450 1449 1448 1448 1448 1448 1448 1449 1449 1451 1452 1453
1471 1468 1463 1461 1468 1470 1471 1466 1469 1471 1472 1474 1475 1473 1474 1476 1475 1474 1472 1471 1469 1467 1465 1463 1461 1459 1457 1455 1453 1451 1450 1448 1446 1445 1444 1444 1443 1443 1443 1444 1445 1446 1446 1448
1470 1467 1458 1464 1468 1471 1468 1462 1468 1469 1471 1473 1473 1473 1475 1474 1473 1472 1471 1469 1467 1465 1463 1461 1459 1457 1454 1452 1450 1448 1446 1444 1442 1441 1440 1439 1438 1438 1438 1439 1439 1440 1441 1443
1467 1466 1461 1464 1467 1466 1463 1465 1467 1469 1470 1471 1472 1472 1472 1472 1472 1471 1469 1467 1465 1463 1461 1459 1456 1454 1451 1449 1447 1444 1442 1439 1437 1436 1435 1434 1433 1433 1433 1433 1433 1434 1435 1436
1460 1459 1460 1461 1462 1463 1463 1465 1466 1467 1469 1470 1471 1471 1471 1470 1470 1468 1467 1465 1463 1460 1458 1456 1453 1451 1448 1446 1443 1440 1438 1435 1433 1431 1430 1429 1428 1428 1427 1427 1428 1428 1429 1430
1461 1458 1459 1460 1460 1461 1462 1463 1465 1466 1467 1468 1469 1469 1469 1468 1467 1466 1464 1462 1460 1457 1455 1453 1450 1448 1445 1443 1440 1437 1434 1431 1429 1427 1425 1424 1423 1422 1422 1422 1422 1422 1423 1424
1457 1455 1457 1456 1456 1458 1460 1462 1463 1464 1465 1466 1467 1466 1466 1465 1464 1463 1461 1459 1457 1455 1452 1450 1447 1444 1442 1439 1436 1433 1430 1428 1425 1423 1421 1419 1418 1417 1417 1416 1417 1417 1417 1418
1446 1447 1449 1450 1451 1454 1457 1459 1461 1462 1463 1464 1464 1464 1463 1462 1461 1460 1458 1456 1454 1451 1449 1446 1443 1440 1437 1435 1432 1429 1426 1424 1421 1419 1417 1415 1413 1412 1411 1412 1411 1411 1412 1413
1442 1443 1445 1447 1449 1451 1454 1456 1458 1460 1461 1461 1461 1461 1460 1459 1458 1456 1454 1452 1450 1447 1445 1442 1439 1436 1433 1430 1428 1425 1422 1420 1417 1415 1412 1411 1409 1408 1406 1406 1406 1406 1406 1407
1439 1442 1444 1445 1447 1449 1452 1454 1456 1457 1458 1458 1458 1458 1457 1456 1454 1453 1451 1449 1446 1443 1441 1438 1435 1432 1429 1426 1423 1421 1418 1416 1413 1411 1408 1407 1405 1403 1402 1401 1400 1400 1401 1402
1436 1439 1441 1443 1445 1447 1449 1451 1453 1454 1455 1455 1455 1454 1453 1452 1451 1449 1447 1445 1442 1439 1436 1434 1431 1428 1425 1422 1419 1416 1414 1411 1409 1406 1404 1402 1400 1399 1398 1397 1396 1396 1396 1397
1432 1435 1438 1440 1442 1444 1446 1448 1450 1451 1451 1451 1451 1451 1450 1448 1447 1445 1443 1440 1438 1435 1432 1429 1426 1424 1421 1418 1415 1412 1409 1407 1405 1402 1400 1398 1396 1394 1393 1392 1392 1391 1391 1392
1428 1430 1433 1436 1439 1441 1443 1445 1446 1447 1448 1448 1448 1447 1446 1444 1443 1441 1439 1436 1433 1431 1428 1425 1422 1419 1416 1413 1410 1407 1405 1402 1400 1398 1396 1394 1392 1391 1389 1388 1388 1387 1387 1387
1424 1427 1430 1432 1435 1438 1440 1442 1443 1444 1444 1444 1444 1443 1442 1440 1439 1437 1435 1432 1429 1427 1424 1421 1418 1415 1412 1409 1406 1403 1400 1398 1396 1394 1392 1390 1388 1387 1385 1384 1383 1383 1382 1383
1421 1425 1428 1431 1433 1435 1437 1439 1440 1441 1441 1440 1440 1439 1438 1436 1434 1432 1430 1427 1425 1422 1420 1417 1414 1411 1408 1405 1402 1399 1396 1394 1392 1390 1388 1386 1384 1382 1381 1380 1379 1379 1379 1378
1418 1422 1425 1428 1431 1433 1435 1436 1437 1437 1437 1437 1436 1435 1434 1432 1430 1428 1426 1423 1421 1418 1415 1412 1409 1406 1403 1401 1398 1395 1392 1390 1388 1386 1384 1382 1380 1379 1377 1377 1376 1375 1375 1374
1416 1420 1423 1426 1428 1430 1432 1433 1433 1433 1433 1433 1432 1430 1429 1428 1426 1424 1421 1419 1417 1414 1411 1408 1405 1402 1399 1396 1394 1391 1388 1386 1384 1382 1380 1378 1376 1375 1374 1373 1373 1372 1371 1371
1414 1418 1421 1424 1426 1428 1429 1429 1430 1430 1429 1429 1428 1426 1425 1423 1421 1419 1417 1415 1412 1409 1406 1404 1401 1398 1395 1392 1389 1387 1384 1382 1380 1378 1376 1375 1373 1372 1371 1370 1369 1369 1368 1368
1413 1416 1419 1421 1423 1425 1426 1426 1426 1426 1425 1425 1424 1422 1421 1419 1417 1415 1412 1410 1407 1405 1402 1399 1396 1393 1391 1388 1385 1383 1380 1378 1376 1374 1373 1371 1370 1368 1367 1366 1366 1365 1365 1364
1412 1415 1417 1419 1421 1422 1422 1423 1423 1422 1422 1421 1420 1418 1416 1414 1412 1410 1408 1405 1403 1400 1397 1394 1392 1389 1386 1383 1381 1379 1376 1374 1372 1371 1369 1367 1366 1365 1364 1363 1362 1362 1361 1361
1410 1413 1415 1417 1418 1419 1419 1419 1419 1419 1418 1417 1416 1414 1412 1410 1408 1406 1403 1401 1398 1395 1392 1389 1387 1384 1381 1378 1376 1374 1372 1370 1369 1367 1365 1364 1363 1361 1360 1359 1359 1358 1358 1357
1409 1411 1413 1414 1415 1416 1416 1416 1416 1415 1414 1413 1412 1411 1409 1406 1404 1402 1399 1396 1393 1390 1387 1384 1382 1379 1376 1374 1372 1370 1368 1366 1364 1363 1362 1360 1359 1358 1357 1356 1355 1355 1354 1354
1407 1408 1410 1411 1412 1412 1412 1412 1412 1411 1410 1409 1407 1406 1404 1402 1400 1397 1394 1392 1389 1386 1383 1380 1377 1374 1372 1369 1367 1365 1363 1362 1360 1359 1357 1356 1355 1354 1353 1352 1352 1351 1350 1350